Time,TemperatureF,DewpointF,PressureIn,WindDirection,WindDirectionDegrees,WindSpeedMPH,WindSpeedGustMPH,Humidity,HourlyPrecipIn,Conditions,Clouds,dailyrainin,SoftwareType,DateUTC
2013-04-04 00:01:00,71.0,35.0,-100.00,NNE,27,1.0,0.0,27,0.00,,,0.00,,2013-04-04 07:01:00,
2013-04-04 00:11:00,71.0,35.0,-100.00,NNE,27,1.0,0.0,27,0.00,,,0.00,,2013-04-04 07:11:00,
2013-04-04 00:21:00,72.0,36.0,-100.00,WNW,288,0.0,0.0,27,0.00,,,0.00,,2013-04-04 07:21:00,
2013-04-04 00:31:00,71.0,36.0,-100.00,WNW,288,0.0,0.0,28,0.00,,,0.00,,2013-04-04 07:31:00,
2013-04-04 00:42:00,71.0,36.0,-100.00,WNW,288,0.0,0.0,28,0.00,,,0.00,,2013-04-04 07:42:00,
2013-04-04 00:52:00,70.0,35.0,-100.00,WNW,288,0.0,0.0,28,0.00,,,0.00,,2013-04-04 07:52:00,
2013-04-04 01:01:00,69.0,35.0,-100.00,WNW,288,0.0,0.0,29,0.00,,,0.00,,2013-04-04 08:01:00,
2013-04-04 01:11:00,69.0,35.0,-100.00,WNW,288,0.0,0.0,29,0.00,,,0.00,,2013-04-04 08:11:00,
2013-04-04 01:22:00,69.0,35.0,-100.00,WNW,288,0.0,0.0,29,0.00,,,0.00,,2013-04-04 08:22:00,
2013-04-04 01:32:00,68.0,36.0,-100.00,WNW,288,0.0,0.0,31,0.00,,,0.00,,2013-04-04 08:32:00,
2013-04-04 01:42:00,68.0,36.0,-100.00,WNW,288,0.0,0.0,31,0.00,,,0.00,,2013-04-04 08:42:00,
2013-04-04 01:52:00,67.0,35.0,-100.00,WNW,288,0.0,0.0,31,0.00,,,0.00,,2013-04-04 08:52:00,
2013-04-04 02:02:00,66.0,36.0,-100.00,WNW,288,0.0,0.0,33,0.00,,,0.00,,2013-04-04 09:02:00,
2013-04-04 02:11:00,66.0,36.0,-100.00,WNW,288,0.0,0.0,33,0.00,,,0.00,,2013-04-04 09:11:00,
2013-04-04 02:22:00,65.0,35.0,-100.00,SSE,162,0.0,0.0,33,0.00,,,0.00,,2013-04-04 09:22:00,
2013-04-04 02:32:00,67.0,38.0,-100.00,NE,51,0.0,0.0,34,0.00,,,0.00,,2013-04-04 09:32:00,
2013-04-04 02:42:00,67.0,38.0,-100.00,NE,51,0.0,0.0,34,0.00,,,0.00,,2013-04-04 09:42:00,
2013-04-04 02:53:00,68.0,35.0,-100.00,NE,35,0.0,0.0,30,0.00,,,0.00,,2013-04-04 09:53:00,
2013-04-04 03:03:00,68.0,35.0,-100.00,NE,35,0.0,0.0,30,0.00,,,0.00,,2013-04-04 10:03:00,
2013-04-04 03:12:00,68.0,35.0,-100.00,NE,35,0.0,0.0,30,0.00,,,0.00,,2013-04-04 10:12:00,
2013-04-04 03:23:00,68.0,35.0,-100.00,NNE,31,1.0,0.0,30,0.00,,,0.00,,2013-04-04 10:23:00,
2013-04-04 03:32:00,69.0,36.0,-100.00,NNE,31,0.0,0.0,30,0.00,,,0.00,,2013-04-04 10:32:00,
2013-04-04 03:42:00,69.0,36.0,-100.00,NNE,31,0.0,0.0,30,0.00,,,0.00,,2013-04-04 10:42:00,
2013-04-04 03:52:00,69.0,37.0,-100.00,East,83,0.0,0.0,31,0.00,,,0.00,,2013-04-04 10:52:00,
2013-04-04 04:02:00,68.0,37.0,-100.00,ESE,108,2.0,3.0,32,0.00,,,0.00,,2013-04-04 11:02:00,
2013-04-04 04:12:00,68.0,37.0,-100.00,ESE,108,2.0,3.0,32,0.00,,,0.00,,2013-04-04 11:12:00,
2013-04-04 04:21:00,68.0,37.0,-100.00,ENE,75,2.0,2.0,32,0.00,,,0.00,,2013-04-04 11:21:00,
2013-04-04 04:31:00,69.0,39.0,-100.00,ENE,72,0.0,0.0,33,0.00,,,0.00,,2013-04-04 11:31:00,
2013-04-04 04:42:00,69.0,39.0,-100.00,ENE,72,0.0,0.0,33,0.00,,,0.00,,2013-04-04 11:42:00,
2013-04-04 04:53:00,69.0,37.0,-100.00,ENE,59,1.0,3.0,31,0.00,,,0.00,,2013-04-04 11:53:00,
2013-04-04 05:02:00,70.0,37.0,-100.00,ENE,69,0.0,0.0,30,0.00,,,0.00,,2013-04-04 12:02:00,
2013-04-04 05:12:00,70.0,37.0,-100.00,ENE,69,0.0,0.0,30,0.00,,,0.00,,2013-04-04 12:12:00,
2013-04-04 05:21:00,71.0,38.0,-100.00,NE,37,1.0,0.0,30,0.00,,,0.00,,2013-04-04 12:21:00,
2013-04-04 05:32:00,71.0,38.0,-100.00,NE,44,0.0,0.0,30,0.00,,,0.00,,2013-04-04 12:32:00,
2013-04-04 05:42:00,71.0,38.0,-100.00,NE,44,0.0,0.0,30,0.00,,,0.00,,2013-04-04 12:42:00,
2013-04-04 05:52:00,70.0,38.0,-100.00,NE,44,0.0,0.0,31,0.00,,,0.00,,2013-04-04 12:52:00,
2013-04-04 06:01:00,69.0,38.0,-100.00,NE,44,0.0,0.0,32,0.00,,,0.00,,2013-04-04 13:01:00,
2013-04-04 06:12:00,69.0,38.0,-100.00,NE,44,0.0,0.0,32,0.00,,,0.00,,2013-04-04 13:12:00,
2013-04-04 06:22:00,67.0,38.0,-100.00,NE,44,0.0,0.0,34,0.00,,,0.00,,2013-04-04 13:22:00,
2013-04-04 06:31:00,67.0,38.0,-100.00,NNE,15,1.0,0.0,34,0.00,,,0.00,,2013-04-04 13:31:00,
2013-04-04 06:41:00,67.0,38.0,-100.00,NNE,15,1.0,0.0,34,0.00,,,0.00,,2013-04-04 13:41:00,
2013-04-04 06:52:00,67.0,38.0,-100.00,NNE,15,0.0,0.0,34,0.00,,,0.00,,2013-04-04 13:52:00,
2013-04-04 07:02:00,66.0,38.0,-100.00,NNE,15,0.0,0.0,35,0.00,,,0.00,,2013-04-04 14:02:00,
2013-04-04 07:11:00,66.0,38.0,-100.00,NNE,15,0.0,0.0,35,0.00,,,0.00,,2013-04-04 14:11:00,
2013-04-04 07:22:00,67.0,38.0,-100.00,North,7,0.0,0.0,34,0.00,,,0.00,,2013-04-04 14:22:00,
2013-04-04 07:32:00,69.0,38.0,-100.00,North,7,0.0,0.0,32,0.00,,,0.00,,2013-04-04 14:32:00,
2013-04-04 07:42:00,69.0,38.0,-100.00,North,7,0.0,0.0,32,0.00,,,0.00,,2013-04-04 14:42:00,
2013-04-04 07:52:00,71.0,40.0,-100.00,NNW,339,0.0,0.0,32,0.00,,,0.00,,2013-04-04 14:52:00,
2013-04-04 08:01:00,73.0,41.0,-100.00,NNW,339,0.0,0.0,31,0.00,,,0.00,,2013-04-04 15:01:00,
2013-04-04 08:22:00,75.0,43.0,-100.00,NNW,339,0.0,0.0,32,0.00,,,0.00,,2013-04-04 15:22:00,
2013-04-04 08:32:00,77.0,44.0,-100.00,NNW,339,0.0,0.0,31,0.00,,,0.00,,2013-04-04 15:32:00,
2013-04-04 08:53:00,80.0,44.0,-100.00,West,273,2.0,2.0,28,0.00,,,0.00,,2013-04-04 15:53:00,
2013-04-04 09:02:00,83.0,42.0,-100.00,WSW,245,0.0,0.0,24,0.00,,,0.00,,2013-04-04 16:02:00,
2013-04-04 09:23:00,85.0,39.0,-100.00,NNW,332,3.0,3.0,20,0.00,,,0.00,,2013-04-04 16:23:00,
2013-04-04 09:32:00,86.0,36.0,-100.00,NW,316,3.0,3.0,17,0.00,,,0.00,,2013-04-04 16:32:00,
2013-04-04 09:53:00,87.0,35.0,-100.00,NNW,329,3.0,3.0,16,0.00,,,0.00,,2013-04-04 16:53:00,
2013-04-04 10:02:00,89.0,35.0,-100.00,NW,322,1.0,1.0,15,0.00,,,0.00,,2013-04-04 17:02:00,
2013-04-04 10:22:00,91.0,31.0,-100.00,NNW,343,3.0,3.0,12,0.00,,,0.00,,2013-04-04 17:22:00,
2013-04-04 10:32:00,91.0,31.0,-100.00,SSW,207,1.0,1.0,12,0.00,,,0.00,,2013-04-04 17:32:00,
2013-04-04 10:52:00,92.0,30.0,-100.00,SW,221,3.0,5.0,11,0.00,,,0.00,,2013-04-04 17:52:00,
2013-04-04 11:01:00,91.0,29.0,-100.00,NE,56,3.0,7.0,11,0.00,,,0.00,,2013-04-04 18:01:00,
2013-04-04 11:22:00,91.0,29.0,-100.00,NNW,343,1.0,0.0,11,0.00,,,0.00,,2013-04-04 18:22:00,
2013-04-04 11:32:00,90.0,28.0,-100.00,SSW,207,3.0,4.0,11,0.00,,,0.00,,2013-04-04 18:32:00,
2013-04-04 11:52:00,91.0,27.0,-100.00,NNW,333,3.0,6.0,10,0.00,,,0.00,,2013-04-04 18:52:00,
2013-04-04 12:02:00,91.0,27.0,-100.00,North,353,1.0,7.0,10,0.00,,,0.00,,2013-04-04 19:02:00,
2013-04-04 12:21:00,92.0,28.0,-100.00,North,359,6.0,6.0,10,0.00,,,0.00,,2013-04-04 19:21:00,
2013-04-04 12:31:00,93.0,28.0,-100.00,ESE,108,2.0,5.0,10,0.00,,,0.00,,2013-04-04 19:31:00,
2013-04-04 12:52:00,92.0,25.0,-100.00,ENE,76,7.0,9.0,9,0.00,,,0.00,,2013-04-04 19:52:00,
2013-04-04 13:02:00,92.0,25.0,-100.00,SSE,165,5.0,5.0,9,0.00,,,0.00,,2013-04-04 20:02:00,
2013-04-04 13:22:00,91.0,24.0,-100.00,SSW,210,3.0,3.0,9,0.00,,,0.00,,2013-04-04 20:22:00,
2013-04-04 13:32:00,91.0,27.0,-100.00,South,169,6.0,6.0,10,0.00,,,0.00,,2013-04-04 20:32:00,
2013-04-04 13:52:00,91.0,27.0,-100.00,West,267,3.0,6.0,10,0.00,,,0.00,,2013-04-04 20:52:00,
2013-04-04 14:02:00,92.0,28.0,-100.00,SSW,207,4.0,4.0,10,0.00,,,0.00,,2013-04-04 21:02:00,
2013-04-04 14:22:00,92.0,25.0,-100.00,SW,222,4.0,6.0,9,0.00,,,0.00,,2013-04-04 21:22:00,
2013-04-04 14:32:00,92.0,25.0,-100.00,SSW,207,0.0,0.0,9,0.00,,,0.00,,2013-04-04 21:32:00,
2013-04-04 14:53:00,92.0,25.0,-100.00,South,188,6.0,6.0,9,0.00,,,0.00,,2013-04-04 21:53:00,
2013-04-04 15:02:00,92.0,25.0,-100.00,East,94,4.0,5.0,9,0.00,,,0.00,,2013-04-04 22:02:00,
2013-04-04 15:22:00,91.0,27.0,-100.00,West,273,8.0,8.0,10,0.00,,,0.00,,2013-04-04 22:22:00,
2013-04-04 15:32:00,92.0,25.0,-100.00,ESE,118,9.0,9.0,9,0.00,,,0.00,,2013-04-04 22:32:00,
2013-04-04 15:53:00,92.0,25.0,-100.00,East,101,2.0,0.0,9,0.00,,,0.00,,2013-04-04 22:53:00,
2013-04-04 16:02:00,92.0,22.0,-100.00,SSE,165,6.0,6.0,8,0.00,,,0.00,,2013-04-04 23:02:00,
2013-04-04 16:22:00,93.0,23.0,-100.00,West,259,6.0,7.0,8,0.00,,,0.00,,2013-04-04 23:22:00,
2013-04-04 16:31:00,93.0,23.0,-100.00,SW,235,7.0,7.0,8,0.00,,,0.00,,2013-04-04 23:31:00,
2013-04-04 16:52:00,92.0,22.0,-100.00,WSW,255,4.0,8.0,8,0.00,,,0.00,,2013-04-04 23:52:00,
2013-04-04 17:01:00,91.0,22.0,-100.00,SW,222,6.0,6.0,8,0.00,,,0.00,,2013-04-05 00:01:00,
2013-04-04 17:22:00,90.0,24.0,-100.00,SSE,158,5.0,8.0,9,0.00,,,0.00,,2013-04-05 00:22:00,
2013-04-04 17:32:00,90.0,24.0,-100.00,WSW,249,5.0,5.0,9,0.00,,,0.00,,2013-04-05 00:32:00,
2013-04-04 17:52:00,89.0,28.0,-100.00,SW,218,7.0,7.0,11,0.00,,,0.00,,2013-04-05 00:52:00,
2013-04-04 18:02:00,89.0,30.0,-100.00,West,274,4.0,4.0,12,0.00,,,0.00,,2013-04-05 01:02:00,
2013-04-04 18:22:00,88.0,33.0,-100.00,NNW,335,4.0,4.0,14,0.00,,,0.00,,2013-04-05 01:22:00,
2013-04-04 18:31:00,87.0,34.0,-100.00,SW,226,4.0,4.0,15,0.00,,,0.00,,2013-04-05 01:31:00,
2013-04-04 18:41:00,87.0,34.0,-100.00,SW,226,4.0,4.0,15,0.00,,,0.00,,2013-04-05 01:41:00,
2013-04-04 18:53:00,86.0,35.0,-100.00,West,264,4.0,6.0,16,0.00,,,0.00,,2013-04-05 01:53:00,
2013-04-04 19:01:00,85.0,35.0,-100.00,WSW,257,3.0,5.0,17,0.00,,,0.00,,2013-04-05 02:01:00,
2013-04-04 19:11:00,85.0,35.0,-100.00,WSW,257,3.0,5.0,17,0.00,,,0.00,,2013-04-05 02:11:00,
2013-04-04 19:22:00,84.0,36.0,-100.00,SSW,203,1.0,0.0,18,0.00,,,0.00,,2013-04-05 02:22:00,
2013-04-04 19:31:00,83.0,36.0,-100.00,SSW,204,1.0,0.0,19,0.00,,,0.00,,2013-04-05 02:31:00,
2013-04-04 19:41:00,83.0,36.0,-100.00,SSW,204,1.0,0.0,19,0.00,,,0.00,,2013-04-05 02:41:00,
2013-04-04 19:52:00,82.0,37.0,-100.00,South,174,0.0,0.0,20,0.00,,,0.00,,2013-04-05 02:52:00,
2013-04-04 20:01:00,82.0,38.0,-100.00,South,174,0.0,0.0,21,0.00,,,0.00,,2013-04-05 03:01:00,
2013-04-04 20:11:00,82.0,38.0,-100.00,South,174,0.0,0.0,21,0.00,,,0.00,,2013-04-05 03:11:00,
2013-04-04 20:22:00,81.0,39.0,-100.00,South,174,0.0,0.0,22,0.00,,,0.00,,2013-04-05 03:22:00,
2013-04-04 20:32:00,80.0,39.0,-100.00,ESE,105,1.0,2.0,23,0.00,,,0.00,,2013-04-05 03:32:00,
2013-04-04 20:42:00,80.0,39.0,-100.00,ESE,105,1.0,2.0,23,0.00,,,0.00,,2013-04-05 03:42:00,
2013-04-04 20:53:00,80.0,39.0,-100.00,South,174,0.0,0.0,23,0.00,,,0.00,,2013-04-05 03:53:00,
2013-04-04 21:02:00,80.0,40.0,-100.00,East,87,2.0,2.0,24,0.00,,,0.00,,2013-04-05 04:02:00,
2013-04-04 21:12:00,80.0,40.0,-100.00,East,87,2.0,2.0,24,0.00,,,0.00,,2013-04-05 04:12:00,
2013-04-04 21:22:00,80.0,42.0,-100.00,NE,35,0.0,1.0,26,0.00,,,0.00,,2013-04-05 04:22:00,
2013-04-04 21:32:00,80.0,42.0,-100.00,ENE,60,0.0,0.0,26,0.00,,,0.00,,2013-04-05 04:32:00,
2013-04-04 21:42:00,80.0,42.0,-100.00,ENE,60,0.0,0.0,26,0.00,,,0.00,,2013-04-05 04:42:00,
2013-04-04 21:52:00,79.0,42.0,-100.00,ENE,60,0.0,0.0,27,0.00,,,0.00,,2013-04-05 04:52:00,
2013-04-04 22:02:00,79.0,41.0,-100.00,ENE,60,0.0,0.0,26,0.00,,,0.00,,2013-04-05 05:02:00,
2013-04-04 22:12:00,79.0,41.0,-100.00,ENE,60,0.0,0.0,26,0.00,,,0.00,,2013-04-05 05:12:00,
2013-04-04 22:21:00,77.0,43.0,-100.00,NW,305,0.0,0.0,30,0.00,,,0.00,,2013-04-05 05:21:00,
2013-04-04 22:31:00,76.0,44.0,-100.00,ENE,59,1.0,1.0,32,0.00,,,0.00,,2013-04-05 05:31:00,
2013-04-04 22:42:00,76.0,44.0,-100.00,ENE,59,1.0,1.0,32,0.00,,,0.00,,2013-04-05 05:42:00,
2013-04-04 22:51:00,77.0,44.0,-100.00,WNW,300,1.0,2.0,31,0.00,,,0.00,,2013-04-05 05:51:00,
2013-04-04 23:02:00,76.0,40.0,-100.00,ESE,118,2.0,3.0,27,0.00,,,0.00,,2013-04-05 06:02:00,
2013-04-04 23:12:00,76.0,40.0,-100.00,ESE,118,2.0,3.0,27,0.00,,,0.00,,2013-04-05 06:12:00,
2013-04-04 23:21:00,75.0,38.0,-100.00,ESE,105,0.0,0.0,26,0.00,,,0.00,,2013-04-05 06:21:00,
2013-04-04 23:32:00,75.0,38.0,-100.00,NE,34,1.0,1.0,26,0.00,,,0.00,,2013-04-05 06:32:00,
2013-04-04 23:42:00,75.0,38.0,-100.00,NE,34,1.0,1.0,26,0.00,,,0.00,,2013-04-05 06:42:00,
2013-04-04 23:52:00,74.0,38.0,-100.00,NNE,25,0.0,0.0,27,0.00,,,0.00,,2013-04-05 06:52:00,